User: anonymous   Login
Location: Caltech
(34.1382°N, 118.1253°W)
Time: 04:48:58
(UTC-08:00)
Language:

KITSAT 1 - Orbit

View from above orbital plane
View from above orbital plane
View from above satellite
View from above satellite

Ground track
Ground track

The orbit data is extracted from the following two-line orbital elements,

1 22077U 92052B   17014.92964442 -.00000032 +00000-0 +11872-3 0  9997
2 22077 066.0856 287.5774 0000284 047.6650 076.3762 12.86516678147309
Epoch (UTC): 14 January 2017 22:18:41
Eccentricity: 0.0000284
inclination: 66.0856°
perigee height: 1315 km
apogee height: 1315 km
right ascension of ascending node: 287.5774°
argument of perigee: 47.6650°
revolutions per day: 12.86516678
mean anomaly at epoch: 76.3762°
orbit number at epoch: 14730

The dashed part of the orbit path shows where the satellite is in the earth's shadow,  

DLR